OBJECT_NAME,OBJECT_ID,EPOCH,MEAN_MOTION,ECCENTRICITY,INCLINATION,RA_OF_ASC_NODE,ARG_OF_PERICENTER,MEAN_ANOMALY,EPHEMERIS_TYPE,CLASSIFICATION_TYPE,NORAD_CAT_ID,ELEMENT_SET_NO,REV_AT_EPOCH,BSTAR,MEAN_MOTION_DOT,MEAN_MOTION_DDOT BEIJING 1,2005-043A,2026-09-12T07:39:25.142400,14.63575268,.00149908,98.3034,29.0764,14.2843,345.8780,0,U,28890,999,11339,.30889611E-4,.111E-5,0 HUANJING 1A (HJ-1A),2008-041A,2026-09-12T06:39:12.183840,14.84156355,.00178283,97.6772,237.7988,208.8496,151.1735,0,U,33320,999,97132,.50580983E-4,.372E-5,0 HUANJING 1B (HJ-1B),2008-041B,2026-09-12T06:52:43.783968,14.83457707,.00345795,97.6603,240.7115,257.5629,102.1715,0,U,33321,999,97132,.38738552E-4,.269E-5,0 YAOGAN-4,2008-061A,2026-09-11T18:50:42.846432,14.83337421,.0014968,97.9322,187.6686,143.6866,216.5366,0,U,33446,999,95850,.85423E-4,.647E-5,0 DEIMOS-1,2009-041A,2026-09-12T06:34:25.644288,14.75312601,.00002636,97.7516,48.7896,60.7638,299.3599,0,U,35681,999,91972,.68774059E-4,.418E-5,0 UK-DMC 2,2009-041C,2026-09-12T06:21:13.573152,14.76136974,.00013105,97.8954,28.1661,69.7097,290.4254,0,U,35683,999,91941,.57745381E-4,.349E-5,0 DMC3-FM1,2015-032A,2026-09-12T06:48:58.787136,14.85813302,.00067485,97.6331,116.9919,117.0416,243.1490,0,U,40715,999,60284,-.34642243E-4,-.352E-5,0 DMC3-FM2,2015-032B,2026-09-12T07:20:08.444256,14.85822577,.00071404,97.6380,118.6446,122.7373,237.4532,0,U,40716,999,60284,.240968E-4,.158E-5,0 DMC3-FM3,2015-032C,2026-09-12T06:17:41.899200,14.85813544,.00063764,97.6429,120.4095,120.9671,239.2173,0,U,40717,999,60284,.90695902E-4,.738E-5,0